Time,TemperatureF,DewpointF,PressureIn,WindDirection,WindDirectionDegrees,WindSpeedMPH,WindSpeedGustMPH,Humidity,HourlyPrecipIn,Conditions,Clouds,dailyrainin,SoftwareType,DateUTC
2013-01-31 00:14:00,35.9,35.0,29.65,WNW,299,1.0,4.0,97,0.04,,,0.01,weatherlink.com 1.10,2013-01-31 05:14:00,
2013-01-31 00:29:00,35.6,35.0,29.66,SSE,150,0.0,3.0,97,0.04,,,0.02,weatherlink.com 1.10,2013-01-31 05:29:00,
2013-01-31 00:44:00,35.1,34.0,29.67,WNW,297,2.0,8.0,96,0.04,,,0.03,weatherlink.com 1.10,2013-01-31 05:44:00,
2013-01-31 01:00:00,33.8,33.0,29.68,ENE,75,0.0,4.0,97,0.04,,,0.04,weatherlink.com 1.10,2013-01-31 06:00:00,
2013-01-31 01:15:00,33.4,33.0,29.70,SW,232,2.0,8.0,97,0.04,,,0.05,weatherlink.com 1.10,2013-01-31 06:15:00,
2013-01-31 01:30:00,31.8,31.0,29.72,NW,307,1.0,4.0,97,0.04,,,0.06,weatherlink.com 1.10,2013-01-31 06:30:00,
2013-01-31 01:45:00,31.6,31.0,29.73,NW,307,1.0,3.0,97,0.03,,,0.06,weatherlink.com 1.10,2013-01-31 06:45:00,
2013-01-31 02:00:00,31.5,31.0,29.73,NW,308,1.0,2.0,97,0.03,,,0.07,weatherlink.com 1.10,2013-01-31 07:00:00,
2013-01-31 02:15:00,31.5,31.0,29.74,ESE,105,0.0,3.0,96,0.03,,,0.08,weatherlink.com 1.10,2013-01-31 07:15:00,
2013-01-31 02:35:00,31.1,29.0,29.75,NW,311,4.0,7.0,93,0.03,,,0.09,weatherlink.com 1.10,2013-01-31 07:35:00,
2013-01-31 02:45:00,31.0,29.0,29.76,WNW,288,2.0,5.0,92,0.04,,,0.10,weatherlink.com 1.10,2013-01-31 07:45:00,
2013-01-31 03:00:00,30.5,28.0,29.76,WNW,297,1.0,6.0,90,0.03,,,0.10,weatherlink.com 1.10,2013-01-31 08:00:00,
2013-01-31 03:15:00,30.1,28.0,29.77,NW,311,2.0,6.0,90,0.02,,,0.10,weatherlink.com 1.10,2013-01-31 08:15:00,
2013-01-31 03:30:00,29.7,27.0,29.78,WNW,296,1.0,4.0,90,0.01,,,0.10,weatherlink.com 1.10,2013-01-31 08:30:00,
2013-01-31 03:45:00,29.4,27.0,29.79,SSW,194,1.0,7.0,90,0.00,,,0.10,weatherlink.com 1.10,2013-01-31 08:45:00,
2013-01-31 04:00:00,29.2,25.0,29.80,SSW,194,1.0,8.0,85,0.00,,,0.10,weatherlink.com 1.10,2013-01-31 09:00:00,
2013-01-31 04:15:00,29.0,26.0,29.80,SSW,194,1.0,4.0,88,0.00,,,0.10,weatherlink.com 1.10,2013-01-31 09:15:00,
2013-01-31 04:30:00,28.8,26.0,29.80,SSW,194,1.0,6.0,88,0.00,,,0.10,weatherlink.com 1.10,2013-01-31 09:30:00,
2013-01-31 04:45:00,28.8,26.0,29.81,SSW,194,1.0,4.0,90,0.00,,,0.10,weatherlink.com 1.10,2013-01-31 09:45:00,
2013-01-31 05:00:00,28.8,27.0,29.81,SSW,195,0.0,1.0,91,0.00,,,0.10,weatherlink.com 1.10,2013-01-31 10:00:00,
2013-01-31 05:15:00,28.8,27.0,29.82,SSW,195,1.0,4.0,91,0.00,,,0.10,weatherlink.com 1.10,2013-01-31 10:15:00,
2013-01-31 05:30:00,28.6,25.0,29.83,SSW,194,1.0,5.0,87,0.00,,,0.10,weatherlink.com 1.10,2013-01-31 10:30:00,
2013-01-31 05:45:00,28.5,25.0,29.84,SSW,195,0.0,3.0,88,0.00,,,0.10,weatherlink.com 1.10,2013-01-31 10:45:00,
2013-01-31 06:00:00,28.3,25.0,29.84,SSW,194,3.0,5.0,86,0.00,,,0.10,weatherlink.com 1.10,2013-01-31 11:00:00,
2013-01-31 06:15:00,28.2,25.0,29.86,SSW,194,0.0,2.0,87,0.00,,,0.10,weatherlink.com 1.10,2013-01-31 11:15:00,
2013-01-31 06:31:00,28.2,25.0,29.87,SSW,194,0.0,4.0,87,0.00,,,0.10,weatherlink.com 1.10,2013-01-31 11:31:00,
2013-01-31 06:46:00,28.0,25.0,29.89,SSW,194,0.0,3.0,87,0.00,,,0.10,weatherlink.com 1.10,2013-01-31 11:46:00,
2013-01-31 07:01:00,27.5,24.0,29.89,SSW,194,2.0,3.0,85,0.00,,,0.10,weatherlink.com 1.10,2013-01-31 12:01:00,
2013-01-31 07:16:00,26.9,23.0,29.90,SSW,194,0.0,2.0,86,0.00,,,0.10,weatherlink.com 1.10,2013-01-31 12:16:00,
2013-01-31 07:31:00,26.6,23.0,29.91,SSW,194,0.0,4.0,86,0.00,,,0.10,weatherlink.com 1.10,2013-01-31 12:31:00,
2013-01-31 07:46:00,26.4,23.0,29.91,SSW,194,2.0,3.0,85,0.00,,,0.10,weatherlink.com 1.10,2013-01-31 12:46:00,
2013-01-31 08:01:00,26.3,22.0,29.92,SSW,194,0.0,2.0,85,0.00,,,0.10,weatherlink.com 1.10,2013-01-31 13:01:00,
2013-01-31 08:16:00,26.3,23.0,29.93,SSW,194,0.0,1.0,87,0.00,,,0.10,weatherlink.com 1.10,2013-01-31 13:16:00,
2013-01-31 08:31:00,27.0,24.0,29.94,SSW,194,1.0,1.0,89,0.00,,,0.10,weatherlink.com 1.10,2013-01-31 13:31:00,
2013-01-31 08:46:00,28.0,24.0,29.95,SSW,194,0.0,1.0,86,0.00,,,0.10,weatherlink.com 1.10,2013-01-31 13:46:00,
2013-01-31 09:01:00,28.7,25.0,29.96,SSW,195,0.0,2.0,86,0.00,,,0.10,weatherlink.com 1.10,2013-01-31 14:01:00,
2013-01-31 09:16:00,29.0,25.0,29.96,SSW,195,0.0,2.0,84,0.00,,,0.10,weatherlink.com 1.10,2013-01-31 14:16:00,
2013-01-31 09:31:00,29.4,25.0,29.96,SSW,194,1.0,3.0,83,0.00,,,0.10,weatherlink.com 1.10,2013-01-31 14:31:00,
2013-01-31 09:46:00,30.3,25.0,29.97,SSW,195,1.0,4.0,81,0.00,,,0.10,weatherlink.com 1.10,2013-01-31 14:46:00,
2013-01-31 10:01:00,31.4,27.0,29.98,SSW,195,1.0,4.0,82,0.00,,,0.10,weatherlink.com 1.10,2013-01-31 15:01:00,
2013-01-31 10:16:00,31.6,26.0,29.97,SSW,194,0.0,5.0,79,0.00,,,0.10,weatherlink.com 1.10,2013-01-31 15:16:00,
2013-01-31 10:32:00,32.4,28.0,29.98,SSW,195,1.0,3.0,83,0.00,,,0.10,weatherlink.com 1.10,2013-01-31 15:32:00,
2013-01-31 10:46:00,32.9,27.0,29.98,SSW,194,1.0,5.0,78,0.00,,,0.10,weatherlink.com 1.10,2013-01-31 15:46:00,
2013-01-31 11:01:00,33.5,27.0,29.98,SSW,194,0.0,3.0,76,0.00,,,0.10,weatherlink.com 1.10,2013-01-31 16:01:00,
2013-01-31 11:16:00,34.5,28.0,29.99,SSW,194,1.0,4.0,78,0.00,,,0.10,weatherlink.com 1.10,2013-01-31 16:16:00,
2013-01-31 11:31:00,35.1,28.0,29.99,SSW,194,1.0,3.0,75,0.00,,,0.10,weatherlink.com 1.10,2013-01-31 16:31:00,
2013-01-31 11:46:00,35.5,27.0,30.00,SSW,194,1.0,10.0,72,0.00,,,0.10,weatherlink.com 1.10,2013-01-31 16:46:00,
2013-01-31 12:01:00,36.6,28.0,30.00,SSW,194,5.0,5.0,72,0.00,,,0.10,weatherlink.com 1.10,2013-01-31 17:01:00,
2013-01-31 12:16:00,38.1,30.0,30.01,SSW,194,1.0,4.0,72,0.00,,,0.10,weatherlink.com 1.10,2013-01-31 17:16:00,
2013-01-31 12:31:00,37.3,28.0,30.03,SSW,195,2.0,6.0,70,0.00,,,0.10,weatherlink.com 1.10,2013-01-31 17:31:00,
2013-01-31 12:46:00,37.2,28.0,30.02,NW,317,1.0,6.0,69,0.01,,,0.11,weatherlink.com 1.10,2013-01-31 17:46:00,
2013-01-31 13:02:00,37.3,27.0,30.01,NW,309,1.0,3.0,66,0.02,,,0.12,weatherlink.com 1.10,2013-01-31 18:02:00,
2013-01-31 13:17:00,38.2,28.0,30.01,East,101,2.0,5.0,66,0.02,,,0.12,weatherlink.com 1.10,2013-01-31 18:17:00,
2013-01-31 13:32:00,38.7,26.0,30.02,West,262,4.0,6.0,61,0.03,,,0.13,weatherlink.com 1.10,2013-01-31 18:32:00,
2013-01-31 13:47:00,39.2,27.0,30.02,NNW,330,1.0,6.0,61,0.03,,,0.14,weatherlink.com 1.10,2013-01-31 18:47:00,
2013-01-31 14:02:00,39.9,26.0,30.02,NNW,344,1.0,7.0,58,0.03,,,0.15,weatherlink.com 1.10,2013-01-31 19:02:00,
2013-01-31 14:17:00,38.8,25.0,30.03,NW,316,1.0,8.0,57,0.03,,,0.15,weatherlink.com 1.10,2013-01-31 19:17:00,
2013-01-31 14:32:00,38.9,25.0,30.03,NNW,347,1.0,5.0,58,0.03,,,0.16,weatherlink.com 1.10,2013-01-31 19:32:00,
2013-01-31 14:47:00,39.3,23.0,30.03,South,173,2.0,6.0,53,0.03,,,0.17,weatherlink.com 1.10,2013-01-31 19:47:00,
2013-01-31 15:02:00,39.5,25.0,30.03,NNW,327,0.0,6.0,56,0.02,,,0.17,weatherlink.com 1.10,2013-01-31 20:02:00,
2013-01-31 15:17:00,39.9,23.0,30.03,NW,309,1.0,5.0,52,0.03,,,0.18,weatherlink.com 1.10,2013-01-31 20:17:00,
2013-01-31 15:32:00,40.3,26.0,30.04,East,87,2.0,8.0,56,0.03,,,0.19,weatherlink.com 1.10,2013-01-31 20:32:00,
2013-01-31 15:47:00,39.5,22.0,30.04,West,262,1.0,8.0,49,0.03,,,0.20,weatherlink.com 1.10,2013-01-31 20:47:00,
2013-01-31 16:02:00,39.7,24.0,30.03,North,355,0.0,4.0,54,0.03,,,0.20,weatherlink.com 1.10,2013-01-31 21:02:00,
2013-01-31 16:17:00,39.3,23.0,30.04,NNW,340,1.0,5.0,53,0.03,,,0.21,weatherlink.com 1.10,2013-01-31 21:17:00,
2013-01-31 16:32:00,38.6,24.0,30.04,South,173,0.0,5.0,55,0.02,,,0.21,weatherlink.com 1.10,2013-01-31 21:32:00,
2013-01-31 16:47:00,38.2,24.0,30.03,NW,325,1.0,3.0,56,0.02,,,0.22,weatherlink.com 1.10,2013-01-31 21:47:00,
2013-01-31 17:02:00,37.9,24.0,30.04,WNW,297,0.0,2.0,57,0.03,,,0.23,weatherlink.com 1.10,2013-01-31 22:02:00,
2013-01-31 17:17:00,37.4,23.0,30.04,West,263,0.0,2.0,56,0.02,,,0.23,weatherlink.com 1.10,2013-01-31 22:17:00,
2013-01-31 17:32:00,36.8,23.0,30.04,WNW,284,0.0,2.0,58,0.03,,,0.24,weatherlink.com 1.10,2013-01-31 22:32:00,
2013-01-31 17:47:00,36.2,23.0,30.04,WNW,287,0.0,1.0,59,0.02,,,0.24,weatherlink.com 1.10,2013-01-31 22:47:00,
2013-01-31 18:02:00,35.2,23.0,30.05,South,176,0.0,3.0,62,0.02,,,0.25,weatherlink.com 1.10,2013-01-31 23:02:00,
2013-01-31 18:17:00,34.1,23.0,30.05,South,179,0.0,0.0,64,0.02,,,0.25,weatherlink.com 1.10,2013-01-31 23:17:00,
2013-01-31 18:32:00,32.8,22.0,30.05,South,179,0.0,0.0,65,0.02,,,0.26,weatherlink.com 1.10,2013-01-31 23:32:00,
2013-01-31 18:47:00,32.1,23.0,30.05,ESE,115,0.0,0.0,68,0.02,,,0.26,weatherlink.com 1.10,2013-01-31 23:47:00,
2013-01-31 19:02:00,31.3,23.0,30.06,ESE,115,0.0,0.0,71,0.01,,,0.26,weatherlink.com 1.10,2013-02-01 00:02:00,
2013-01-31 19:17:00,30.5,22.0,30.07,SE,125,0.0,0.0,72,0.01,,,0.26,weatherlink.com 1.10,2013-02-01 00:17:00,
2013-01-31 19:32:00,30.5,22.0,30.08,SE,127,0.0,0.0,71,0.00,,,0.26,weatherlink.com 1.10,2013-02-01 00:32:00,
2013-01-31 19:47:00,30.4,22.0,30.08,SE,139,0.0,0.0,72,0.00,,,0.26,weatherlink.com 1.10,2013-02-01 00:47:00,
2013-01-31 20:02:00,30.1,22.0,30.08,SE,138,0.0,0.0,73,0.00,,,0.26,weatherlink.com 1.10,2013-02-01 01:02:00,
2013-01-31 20:17:00,30.0,23.0,30.08,SE,138,0.0,0.0,74,0.00,,,0.26,weatherlink.com 1.10,2013-02-01 01:17:00,
2013-01-31 20:32:00,30.2,23.0,30.10,SE,139,0.0,0.0,74,0.00,,,0.26,weatherlink.com 1.10,2013-02-01 01:32:00,
2013-01-31 20:47:00,30.3,23.0,30.10,SE,138,0.0,0.0,74,0.00,,,0.26,weatherlink.com 1.10,2013-02-01 01:47:00,
2013-01-31 21:02:00,30.0,23.0,30.11,SSE,150,0.0,0.0,76,0.00,,,0.26,weatherlink.com 1.10,2013-02-01 02:02:00,
2013-01-31 21:17:00,29.8,23.0,30.11,SSE,151,0.0,0.0,77,0.00,,,0.26,weatherlink.com 1.10,2013-02-01 02:17:00,
2013-01-31 21:32:00,29.8,24.0,30.11,SSE,162,0.0,0.0,78,0.00,,,0.26,weatherlink.com 1.10,2013-02-01 02:32:00,
2013-01-31 21:47:00,29.6,24.0,30.10,SSE,162,0.0,0.0,79,0.00,,,0.26,weatherlink.com 1.10,2013-02-01 02:47:00,
2013-01-31 22:02:00,29.7,24.0,30.10,SSE,155,0.0,0.0,79,0.00,,,0.26,weatherlink.com 1.10,2013-02-01 03:02:00,
2013-01-31 22:17:00,30.6,24.0,30.09,SSW,210,0.0,0.0,76,0.00,,,0.26,weatherlink.com 1.10,2013-02-01 03:17:00,
2013-01-31 22:32:00,31.6,24.0,30.10,SW,214,1.0,2.0,74,0.00,,,0.26,weatherlink.com 1.10,2013-02-01 03:32:00,
2013-01-31 22:47:00,32.0,24.0,30.11,SW,214,1.0,1.0,72,0.00,,,0.26,weatherlink.com 1.10,2013-02-01 03:47:00,
2013-01-31 23:02:00,32.4,24.0,30.11,SSE,166,0.0,1.0,71,0.00,,,0.26,weatherlink.com 1.10,2013-02-01 04:02:00,
2013-01-31 23:17:00,32.3,24.0,30.12,WNW,293,0.0,1.0,72,0.00,,,0.26,weatherlink.com 1.10,2013-02-01 04:17:00,
2013-01-31 23:32:00,32.5,25.0,30.10,North,359,1.0,1.0,73,0.00,,,0.26,weatherlink.com 1.10,2013-02-01 04:32:00,
2013-01-31 23:47:00,33.1,25.0,30.09,SE,138,0.0,2.0,73,0.00,,,0.26,weatherlink.com 1.10,2013-02-01 04:47:00,